Terminal Aerodrome Forecast
Issued by NWS

Home | Current Version | Previous Version | Text Only | Print | Product List | Glossary On
Versions: 1 2 3 4 5 6 7 8 9 10 11 12 13 14 15 16 17 18 19 20 21 22 23 24 25 26 27 28 29 30 31 32 33 34 35 36 37 38 39 40 41 42 43 44 45 46 47 48 49 50
000
FTUS44 KLIX 191700 RRA
TAFASD
TAF
KASD 191740Z 1918/2018 05005KT 6SM -RA SCT004 BKN008 OVC030
      TEMPO 1918/1922 3SM SHRA BKN004
     FM192200 08007KT 4SM SHRA OVC008
     FM200900 05007KT P6SM OVC008
     FM201600 02008KT P6SM BKN010=

USA.gov is the U.S. government's official web portal to all federal, state and local government web resources and services.